Time,TemperatureF,DewpointF,PressureIn,WindDirection,WindDirectionDegrees,WindSpeedMPH,WindSpeedGustMPH,Humidity,HourlyPrecipIn,Conditions,Clouds,dailyrainin,SoftwareType,DateUTC
2013-04-25 00:01:00,37.7,30.8,29.86,SW,236,0.0,0.0,76,0.00,,---,0.00,VWS V14.01,2013-04-25 07:01:00,
2013-04-25 00:06:00,37.5,31.0,29.86,SW,236,0.0,0.0,77,0.00,,---,0.00,VWS V14.01,2013-04-25 07:06:00,
2013-04-25 00:11:00,37.2,30.7,29.86,SW,236,0.0,0.0,77,0.00,,---,0.00,VWS V14.01,2013-04-25 07:11:00,
2013-04-25 00:16:00,36.9,30.4,29.86,SW,236,0.0,0.0,77,0.00,,---,0.00,VWS V14.01,2013-04-25 07:16:00,
2013-04-25 00:21:00,36.6,30.7,29.86,SW,236,0.0,0.0,79,0.00,,---,0.00,VWS V14.01,2013-04-25 07:21:00,
2013-04-25 00:26:00,36.3,29.8,29.86,SW,236,0.0,0.0,77,0.00,,---,0.00,VWS V14.01,2013-04-25 07:26:00,
2013-04-25 00:31:00,35.9,29.7,29.85,SW,236,0.0,0.0,78,0.00,,---,0.00,VWS V14.01,2013-04-25 07:31:00,
2013-04-25 00:36:00,35.7,29.5,29.85,SW,236,0.0,0.0,78,0.00,,---,0.00,VWS V14.01,2013-04-25 07:36:00,
2013-04-25 00:41:00,35.6,29.4,29.85,SW,236,0.0,0.0,78,0.00,,---,0.00,VWS V14.01,2013-04-25 07:41:00,
2013-04-25 00:46:00,35.3,29.8,29.85,SW,236,0.0,0.0,80,0.00,,---,0.00,VWS V14.01,2013-04-25 07:46:00,
2013-04-25 00:51:00,35.2,29.7,29.85,SW,236,0.0,0.0,80,0.00,,---,0.00,VWS V14.01,2013-04-25 07:51:00,
2013-04-25 00:56:00,35.3,29.5,29.85,SW,236,0.0,0.0,79,0.00,,---,0.00,VWS V14.01,2013-04-25 07:56:00,
2013-04-25 01:01:00,35.2,29.4,29.85,SW,236,0.0,0.0,79,0.00,,---,0.00,VWS V14.01,2013-04-25 08:01:00,
2013-04-25 01:06:00,35.0,29.5,29.85,SW,236,0.0,0.0,80,0.00,,---,0.00,VWS V14.01,2013-04-25 08:06:00,
2013-04-25 01:11:00,34.8,29.9,29.84,SW,236,0.0,0.0,82,0.00,,---,0.00,VWS V14.01,2013-04-25 08:11:00,
2013-04-25 01:16:00,34.4,29.8,29.84,SW,236,0.0,0.0,83,0.00,,---,0.00,VWS V14.01,2013-04-25 08:16:00,
2013-04-25 01:21:00,34.2,29.9,29.84,SW,236,0.0,0.0,84,0.00,,---,0.00,VWS V14.01,2013-04-25 08:21:00,
2013-04-25 01:26:00,34.3,30.0,29.84,SW,236,0.0,0.0,84,0.00,,---,0.00,VWS V14.01,2013-04-25 08:26:00,
2013-04-25 01:31:00,34.1,29.8,29.83,SW,236,0.0,0.0,84,0.00,,---,0.00,VWS V14.01,2013-04-25 08:31:00,
2013-04-25 01:36:00,34.2,29.6,29.84,SW,236,0.0,0.0,83,0.00,,---,0.00,VWS V14.01,2013-04-25 08:36:00,
2013-04-25 01:41:00,34.2,29.6,29.83,SW,236,0.0,0.0,83,0.00,,---,0.00,VWS V14.01,2013-04-25 08:41:00,
2013-04-25 01:46:00,34.0,29.1,29.83,SW,236,0.0,0.0,82,0.00,,---,0.00,VWS V14.01,2013-04-25 08:46:00,
2013-04-25 01:51:00,33.9,29.3,29.83,SW,236,0.0,0.0,83,0.00,,---,0.00,VWS V14.01,2013-04-25 08:51:00,
2013-04-25 01:56:00,33.7,29.4,29.83,SW,236,0.0,0.0,84,0.00,,---,0.00,VWS V14.01,2013-04-25 08:56:00,
2013-04-25 02:01:00,33.7,29.4,29.83,SW,236,0.0,0.0,84,0.00,,---,0.00,VWS V14.01,2013-04-25 09:01:00,
2013-04-25 02:06:00,33.3,29.6,29.83,SW,236,0.0,0.0,86,0.00,,---,0.00,VWS V14.01,2013-04-25 09:06:00,
2013-04-25 02:11:00,33.2,29.2,29.83,SW,236,0.0,0.0,85,0.00,,---,0.00,VWS V14.01,2013-04-25 09:11:00,
2013-04-25 02:16:00,33.3,29.6,29.83,SW,236,0.0,0.0,86,0.00,,---,0.00,VWS V14.01,2013-04-25 09:16:00,
2013-04-25 02:21:00,33.3,29.6,29.83,SW,236,0.0,0.0,86,0.00,,---,0.00,VWS V14.01,2013-04-25 09:21:00,
2013-04-25 02:26:00,33.3,29.6,29.83,SW,236,0.0,0.0,86,0.00,,---,0.00,VWS V14.01,2013-04-25 09:26:00,
2013-04-25 02:31:00,33.4,29.7,29.83,SW,236,0.0,0.0,86,0.00,,---,0.00,VWS V14.01,2013-04-25 09:31:00,
2013-04-25 02:36:00,33.5,29.8,29.83,SW,236,0.0,0.0,86,0.00,,---,0.00,VWS V14.01,2013-04-25 09:36:00,
2013-04-25 02:41:00,33.2,29.5,29.83,SW,236,0.0,0.0,86,0.00,,---,0.00,VWS V14.01,2013-04-25 09:41:00,
2013-04-25 02:46:00,33.3,29.6,29.83,SW,236,0.0,0.0,86,0.00,,---,0.00,VWS V14.01,2013-04-25 09:46:00,
2013-04-25 02:51:00,33.1,29.4,29.83,SW,236,0.0,0.0,86,0.00,,---,0.00,VWS V14.01,2013-04-25 09:51:00,
2013-04-25 02:56:00,32.8,29.4,29.82,SW,236,0.0,0.0,87,0.00,,---,0.00,VWS V14.01,2013-04-25 09:56:00,
2013-04-25 03:01:00,32.6,29.2,29.82,SW,236,0.0,0.0,87,0.00,,---,0.00,VWS V14.01,2013-04-25 10:01:00,
2013-04-25 03:06:00,32.4,29.0,29.82,SW,236,0.0,0.0,87,0.00,,---,0.00,VWS V14.01,2013-04-25 10:06:00,
2013-04-25 03:11:00,32.3,29.1,29.82,SW,236,0.0,0.0,88,0.00,,---,0.00,VWS V14.01,2013-04-25 10:11:00,
2013-04-25 03:16:00,31.9,28.8,29.82,SW,236,0.0,0.0,88,0.00,,---,0.00,VWS V14.01,2013-04-25 10:16:00,
2013-04-25 03:21:00,31.9,29.0,29.82,SW,236,0.0,0.0,89,0.00,,---,0.00,VWS V14.01,2013-04-25 10:21:00,
2013-04-25 03:26:00,31.9,29.0,29.82,SW,236,0.0,0.0,89,0.00,,---,0.00,VWS V14.01,2013-04-25 10:26:00,
2013-04-25 03:31:00,31.8,28.9,29.83,SW,236,0.0,0.0,89,0.00,,---,0.00,VWS V14.01,2013-04-25 10:31:00,
2013-04-25 03:36:00,31.9,29.0,29.83,SW,236,0.0,0.0,89,0.00,,---,0.00,VWS V14.01,2013-04-25 10:36:00,
2013-04-25 03:41:00,31.8,28.7,29.82,SW,236,0.0,0.0,88,0.00,,---,0.00,VWS V14.01,2013-04-25 10:41:00,
2013-04-25 03:46:00,31.4,28.3,29.82,SW,236,0.0,0.0,88,0.00,,---,0.00,VWS V14.01,2013-04-25 10:46:00,
2013-04-25 03:51:00,31.2,28.3,29.83,SW,236,0.0,0.0,89,0.00,,---,0.00,VWS V14.01,2013-04-25 10:51:00,
2013-04-25 03:56:00,31.2,28.3,29.82,SW,236,0.0,0.0,89,0.00,,---,0.00,VWS V14.01,2013-04-25 10:56:00,
2013-04-25 04:01:00,31.0,28.1,29.82,SW,236,0.0,0.0,89,0.00,,---,0.00,VWS V14.01,2013-04-25 11:01:00,
2013-04-25 04:06:00,30.8,28.2,29.83,SW,236,0.0,0.0,90,0.00,,---,0.00,VWS V14.01,2013-04-25 11:06:00,
2013-04-25 04:11:00,31.0,28.7,29.83,SW,236,0.0,0.0,91,0.00,,---,0.00,VWS V14.01,2013-04-25 11:11:00,
2013-04-25 04:16:00,30.9,28.3,29.83,SW,236,0.0,0.0,90,0.00,,---,0.00,VWS V14.01,2013-04-25 11:16:00,
2013-04-25 04:21:00,30.7,28.4,29.83,SW,236,0.0,0.0,91,0.00,,---,0.00,VWS V14.01,2013-04-25 11:21:00,
2013-04-25 04:26:00,30.5,28.2,29.82,SW,236,0.0,0.0,91,0.00,,---,0.00,VWS V14.01,2013-04-25 11:26:00,
2013-04-25 04:31:00,30.5,28.2,29.83,SW,236,0.0,0.0,91,0.00,,---,0.00,VWS V14.01,2013-04-25 11:31:00,
2013-04-25 04:36:00,30.4,28.1,29.83,SW,236,0.0,0.0,91,0.00,,---,0.00,VWS V14.01,2013-04-25 11:36:00,
2013-04-25 04:41:00,30.3,28.0,29.83,SW,236,0.0,0.0,91,0.00,,---,0.00,VWS V14.01,2013-04-25 11:41:00,
2013-04-25 04:46:00,30.1,27.8,29.83,SW,236,0.0,0.0,91,0.00,,---,0.00,VWS V14.01,2013-04-25 11:46:00,
2013-04-25 04:51:00,30.1,27.8,29.83,SW,236,0.0,0.0,91,0.00,,---,0.00,VWS V14.01,2013-04-25 11:51:00,
2013-04-25 04:56:00,30.1,28.1,29.83,SW,236,0.0,0.0,92,0.00,,---,0.00,VWS V14.01,2013-04-25 11:56:00,
2013-04-25 05:01:00,30.0,27.7,29.83,SW,236,0.0,0.0,91,0.00,,---,0.00,VWS V14.01,2013-04-25 12:01:00,
2013-04-25 05:06:00,29.8,27.8,29.83,SW,236,0.0,0.0,92,0.00,,---,0.00,VWS V14.01,2013-04-25 12:06:00,
2013-04-25 05:11:00,29.8,27.8,29.83,SW,236,0.0,0.0,92,0.00,,---,0.00,VWS V14.01,2013-04-25 12:11:00,
2013-04-25 05:16:00,29.6,27.6,29.83,SW,236,0.0,0.0,92,0.00,,---,0.00,VWS V14.01,2013-04-25 12:16:00,
2013-04-25 05:21:00,29.6,27.8,29.83,SW,236,0.0,0.0,93,0.00,,---,0.00,VWS V14.01,2013-04-25 12:21:00,
2013-04-25 05:26:00,29.4,27.6,29.83,SW,236,0.0,0.0,93,0.00,,---,0.00,VWS V14.01,2013-04-25 12:26:00,
2013-04-25 05:31:00,29.2,27.4,29.83,SW,236,0.0,0.0,93,0.00,,---,0.00,VWS V14.01,2013-04-25 12:31:00,
2013-04-25 05:36:00,28.9,27.1,29.83,SW,236,0.0,0.0,93,0.00,,---,0.00,VWS V14.01,2013-04-25 12:36:00,
2013-04-25 05:41:00,28.8,27.0,29.83,SW,236,0.0,0.0,93,0.00,,---,0.00,VWS V14.01,2013-04-25 12:41:00,
2013-04-25 05:46:00,28.4,26.6,29.83,SW,236,0.0,0.0,93,0.00,,---,0.00,VWS V14.01,2013-04-25 12:46:00,
2013-04-25 05:51:00,28.2,26.4,29.83,SW,236,0.0,0.0,93,0.00,,---,0.00,VWS V14.01,2013-04-25 12:51:00,
2013-04-25 05:56:00,28.3,26.5,29.83,SW,236,0.0,0.0,93,0.00,,---,0.00,VWS V14.01,2013-04-25 12:56:00,
2013-04-25 06:01:00,28.4,26.9,29.83,SW,236,0.0,0.0,94,0.00,,---,0.00,VWS V14.01,2013-04-25 13:01:00,
2013-04-25 06:06:00,28.5,27.0,29.83,SW,236,0.0,0.0,94,0.00,,---,0.00,VWS V14.01,2013-04-25 13:06:00,
2013-04-25 06:11:00,28.7,27.2,29.83,SW,236,0.0,0.0,94,0.00,,---,0.00,VWS V14.01,2013-04-25 13:11:00,
2013-04-25 06:16:00,28.8,27.3,29.83,SW,236,0.0,0.0,94,0.00,,---,0.00,VWS V14.01,2013-04-25 13:16:00,
2013-04-25 06:21:00,28.9,27.4,29.83,SW,236,0.0,0.0,94,0.00,,---,0.00,VWS V14.01,2013-04-25 13:21:00,
2013-04-25 06:26:00,29.0,27.5,29.83,SW,236,0.0,0.0,94,0.00,,---,0.00,VWS V14.01,2013-04-25 13:26:00,
2013-04-25 06:31:00,29.2,27.7,29.83,SW,236,0.0,0.0,94,0.00,,---,0.00,VWS V14.01,2013-04-25 13:31:00,
2013-04-25 06:36:00,29.3,27.8,29.83,SW,236,0.0,0.0,94,0.00,,---,0.00,VWS V14.01,2013-04-25 13:36:00,
2013-04-25 06:41:00,29.5,28.0,29.83,SW,236,0.0,0.0,94,0.00,,---,0.00,VWS V14.01,2013-04-25 13:41:00,
2013-04-25 06:46:00,30.2,28.7,29.83,SW,236,0.0,0.0,94,0.00,,---,0.00,VWS V14.01,2013-04-25 13:46:00,
2013-04-25 06:51:00,30.8,29.3,29.84,SW,236,0.0,0.0,94,0.00,,---,0.00,VWS V14.01,2013-04-25 13:51:00,
2013-04-25 06:56:00,31.4,29.6,29.84,SW,236,0.0,0.0,93,0.00,,---,0.00,VWS V14.01,2013-04-25 13:56:00,
2013-04-25 07:01:00,31.7,29.6,29.84,SW,236,0.0,0.0,92,0.00,,---,0.00,VWS V14.01,2013-04-25 14:01:00,
2013-04-25 07:06:00,32.3,30.2,29.84,SW,236,0.0,0.0,92,0.00,,---,0.00,VWS V14.01,2013-04-25 14:06:00,
2013-04-25 07:11:00,33.2,31.1,29.84,SW,236,0.0,0.0,92,0.00,,---,0.00,VWS V14.01,2013-04-25 14:11:00,
2013-04-25 07:16:00,34.2,32.1,29.84,SW,236,0.0,0.0,92,0.00,,---,0.00,VWS V14.01,2013-04-25 14:16:00,
2013-04-25 07:21:00,35.0,32.6,29.84,SW,236,0.0,0.0,91,0.00,,---,0.00,VWS V14.01,2013-04-25 14:21:00,
2013-04-25 07:26:00,35.9,33.3,29.84,SW,236,0.0,0.0,90,0.00,,---,0.00,VWS V14.01,2013-04-25 14:26:00,
2013-04-25 07:31:00,37.1,33.6,29.84,SW,236,0.0,0.0,87,0.00,,---,0.00,VWS V14.01,2013-04-25 14:31:00,
2013-04-25 07:36:00,38.6,34.8,29.84,SW,236,0.0,0.0,86,0.00,,---,0.00,VWS V14.01,2013-04-25 14:36:00,
2013-04-25 07:41:00,39.9,34.9,29.84,SW,236,0.0,0.0,82,0.00,,---,0.00,VWS V14.01,2013-04-25 14:41:00,
2013-04-25 07:46:00,41.0,35.6,29.85,SSW,201,4.0,4.0,81,0.00,,---,0.00,VWS V14.01,2013-04-25 14:46:00,
2013-04-25 07:51:00,42.5,34.8,29.85,South,178,1.0,5.0,74,0.00,,---,0.00,VWS V14.01,2013-04-25 14:51:00,
2013-04-25 07:56:00,43.5,35.1,29.85,South,178,0.0,5.0,72,0.00,,---,0.00,VWS V14.01,2013-04-25 14:56:00,
2013-04-25 08:01:00,44.4,34.5,29.85,South,178,2.0,5.0,68,0.00,,---,0.00,VWS V14.01,2013-04-25 15:01:00,
2013-04-25 08:06:00,44.7,34.8,29.85,South,178,2.0,4.0,68,0.00,,---,0.00,VWS V14.01,2013-04-25 15:06:00,
2013-04-25 08:11:00,45.3,35.4,29.86,South,179,4.0,4.0,68,0.00,,---,0.00,VWS V14.01,2013-04-25 15:11:00,
2013-04-25 08:16:00,45.8,35.1,29.86,WSW,252,2.0,5.0,66,0.00,,---,0.00,VWS V14.01,2013-04-25 15:16:00,
2013-04-25 08:21:00,46.4,35.3,29.86,WSW,251,1.0,5.0,65,0.00,,---,0.00,VWS V14.01,2013-04-25 15:21:00,
2013-04-25 08:26:00,46.9,35.8,29.86,WSW,246,1.0,5.0,65,0.00,,---,0.00,VWS V14.01,2013-04-25 15:26:00,
2013-04-25 08:31:00,46.8,36.0,29.86,SSW,213,5.0,5.0,66,0.00,,---,0.00,VWS V14.01,2013-04-25 15:31:00,
2013-04-25 08:36:00,47.0,35.1,29.86,SW,214,1.0,5.0,63,0.00,,---,0.00,VWS V14.01,2013-04-25 15:36:00,
2013-04-25 08:41:00,47.7,35.7,29.86,SSW,202,1.0,5.0,63,0.00,,---,0.00,VWS V14.01,2013-04-25 15:41:00,
2013-04-25 08:46:00,47.6,34.0,29.86,South,180,1.0,5.0,59,0.00,,---,0.00,VWS V14.01,2013-04-25 15:46:00,
2013-04-25 08:51:00,48.0,34.8,29.86,SSW,196,3.0,5.0,60,0.00,,---,0.00,VWS V14.01,2013-04-25 15:51:00,
2013-04-25 08:56:00,49.3,35.2,29.86,SSW,192,4.0,5.0,58,0.00,,---,0.00,VWS V14.01,2013-04-25 15:56:00,
2013-04-25 09:01:00,49.2,35.5,29.86,SW,234,3.0,6.0,59,0.00,,---,0.00,VWS V14.01,2013-04-25 16:01:00,
2013-04-25 09:06:00,50.0,37.5,29.85,SW,225,1.0,3.0,62,0.00,,---,0.00,VWS V14.01,2013-04-25 16:06:00,
2013-04-25 09:11:00,50.6,35.5,29.85,SSW,202,1.0,4.0,56,0.00,,---,0.00,VWS V14.01,2013-04-25 16:11:00,
2013-04-25 09:16:00,50.6,36.4,29.85,SW,221,2.0,4.0,58,0.00,,---,0.00,VWS V14.01,2013-04-25 16:16:00,
2013-04-25 09:21:00,51.4,37.1,29.85,SSW,193,2.0,4.0,58,0.00,,---,0.00,VWS V14.01,2013-04-25 16:21:00,
2013-04-25 09:26:00,50.8,36.1,29.86,SE,126,1.0,5.0,57,0.00,,---,0.00,VWS V14.01,2013-04-25 16:26:00,
2013-04-25 09:31:00,51.5,35.9,29.86,SSE,167,2.0,6.0,55,0.00,,---,0.00,VWS V14.01,2013-04-25 16:31:00,
2013-04-25 09:36:00,52.4,37.2,29.86,SW,233,1.0,6.0,56,0.00,,---,0.00,VWS V14.01,2013-04-25 16:36:00,
2013-04-25 09:40:00,52.7,37.0,29.86,SW,214,2.0,6.0,55,0.00,,---,0.00,VWS V14.01,2013-04-25 16:40:00,
2013-04-25 09:45:00,52.5,37.3,29.86,SW,214,0.0,6.0,56,0.00,,---,0.00,VWS V14.01,2013-04-25 16:45:00,
2013-04-25 09:51:00,53.2,38.8,29.86,SSW,194,3.0,6.0,58,0.00,,---,0.00,VWS V14.01,2013-04-25 16:51:00,
2013-04-25 09:56:00,54.0,36.8,29.86,SW,219,0.0,6.0,52,0.00,,---,0.00,VWS V14.01,2013-04-25 16:56:00,
2013-04-25 10:00:00,54.1,35.9,29.85,SW,220,0.0,6.0,50,0.00,,---,0.00,VWS V14.01,2013-04-25 17:00:00,
2013-04-25 10:06:00,54.4,36.7,29.85,SSW,192,0.0,3.0,51,0.00,,---,0.00,VWS V14.01,2013-04-25 17:06:00,
2013-04-25 10:11:00,55.2,36.9,29.85,ESE,115,4.0,5.0,50,0.00,,---,0.00,VWS V14.01,2013-04-25 17:11:00,
2013-04-25 10:16:00,55.9,39.5,29.86,WSW,244,1.0,6.0,54,0.00,,---,0.00,VWS V14.01,2013-04-25 17:16:00,
2013-04-25 10:21:00,56.2,36.8,29.86,SSW,196,1.0,6.0,48,0.00,,---,0.00,VWS V14.01,2013-04-25 17:21:00,
2013-04-25 10:26:00,56.5,39.1,29.86,ESE,121,2.0,6.0,52,0.00,,---,0.00,VWS V14.01,2013-04-25 17:26:00,
2013-04-25 10:30:00,56.3,36.9,29.86,SSE,157,0.0,6.0,48,0.00,,---,0.00,VWS V14.01,2013-04-25 17:30:00,
2013-04-25 10:35:00,56.5,37.1,29.86,SSW,211,3.0,6.0,48,0.00,,---,0.00,VWS V14.01,2013-04-25 17:35:00,
2013-04-25 10:40:00,56.6,36.6,29.86,WSW,243,2.0,6.0,47,0.00,,---,0.00,VWS V14.01,2013-04-25 17:40:00,
2013-04-25 10:45:00,58.3,36.5,29.86,SW,221,2.0,6.0,44,0.00,,---,0.00,VWS V14.01,2013-04-25 17:45:00,
2013-04-25 10:50:00,58.2,38.1,29.86,SW,232,1.0,6.0,47,0.00,,---,0.00,VWS V14.01,2013-04-25 17:50:00,
2013-04-25 10:55:00,57.7,37.1,29.87,SSW,213,2.0,6.0,46,0.00,,---,0.00,VWS V14.01,2013-04-25 17:55:00,
2013-04-25 11:00:00,58.2,39.2,29.87,South,184,0.0,6.0,49,0.00,,---,0.00,VWS V14.01,2013-04-25 18:00:00,
2013-04-25 11:05:00,58.3,34.1,29.87,SW,223,2.0,5.0,40,0.00,,---,0.00,VWS V14.01,2013-04-25 18:05:00,
2013-04-25 11:10:00,58.6,36.2,29.87,SW,216,5.0,5.0,43,0.00,,---,0.00,VWS V14.01,2013-04-25 18:10:00,
2013-04-25 11:15:00,58.7,35.1,29.87,SW,224,0.0,5.0,41,0.00,,---,0.00,VWS V14.01,2013-04-25 18:15:00,
2013-04-25 11:20:00,58.7,37.4,29.87,SSW,213,3.0,7.0,45,0.00,,---,0.00,VWS V14.01,2013-04-25 18:20:00,
2013-04-25 11:25:00,59.5,38.2,29.87,South,178,1.0,7.0,45,0.00,,---,0.00,VWS V14.01,2013-04-25 18:25:00,
2013-04-25 11:30:00,59.7,39.5,29.87,SW,236,1.0,7.0,47,0.00,,---,0.00,VWS V14.01,2013-04-25 18:30:00,
2013-04-25 11:35:00,60.1,39.8,29.87,South,175,0.0,7.0,47,0.00,,---,0.00,VWS V14.01,2013-04-25 18:35:00,
2013-04-25 11:40:00,60.8,37.6,29.87,West,265,3.0,7.0,42,0.00,,---,0.00,VWS V14.01,2013-04-25 18:40:00,
2013-04-25 11:45:00,61.2,40.8,29.87,WSW,250,2.0,7.0,47,0.00,,---,0.00,VWS V14.01,2013-04-25 18:45:00,
2013-04-25 11:50:00,61.0,39.0,29.87,WSW,248,3.0,7.0,44,0.00,,---,0.00,VWS V14.01,2013-04-25 18:50:00,
2013-04-25 11:55:00,61.4,40.5,29.87,SW,217,3.0,8.0,46,0.00,,---,0.00,VWS V14.01,2013-04-25 18:55:00,
2013-04-25 12:00:00,61.0,36.5,29.87,WSW,244,1.0,8.0,40,0.00,,---,0.00,VWS V14.01,2013-04-25 19:00:00,
2013-04-25 12:05:00,61.1,36.6,29.87,SW,227,4.0,8.0,40,0.00,,---,0.00,VWS V14.01,2013-04-25 19:05:00,
2013-04-25 12:10:00,61.9,40.3,29.87,ESE,121,1.0,8.0,45,0.00,,---,0.00,VWS V14.01,2013-04-25 19:10:00,
2013-04-25 12:15:00,62.5,37.2,29.87,SW,214,2.0,8.0,39,0.00,,---,0.00,VWS V14.01,2013-04-25 19:15:00,
2013-04-25 12:20:00,62.3,35.7,29.87,SW,234,3.0,9.0,37,0.00,,---,0.00,VWS V14.01,2013-04-25 19:20:00,
2013-04-25 12:25:00,62.7,37.4,29.87,SSW,192,3.0,9.0,39,0.00,,---,0.00,VWS V14.01,2013-04-25 19:25:00,
2013-04-25 12:30:00,62.7,38.7,29.87,South,173,5.0,9.0,41,0.00,,---,0.00,VWS V14.01,2013-04-25 19:30:00,
2013-04-25 12:35:00,63.3,38.6,29.87,SW,215,4.0,9.0,40,0.00,,---,0.00,VWS V14.01,2013-04-25 19:35:00,
2013-04-25 12:40:00,62.7,38.7,29.87,SSW,209,4.0,9.0,41,0.00,,---,0.00,VWS V14.01,2013-04-25 19:40:00,
2013-04-25 12:45:00,64.5,38.3,29.87,SW,217,1.0,9.0,38,0.00,,---,0.00,VWS V14.01,2013-04-25 19:45:00,
2013-04-25 12:50:00,64.3,37.5,29.87,SW,223,2.0,9.0,37,0.00,,---,0.00,VWS V14.01,2013-04-25 19:50:00,
2013-04-25 12:55:00,64.4,36.9,29.87,SW,229,2.0,9.0,36,0.00,,---,0.00,VWS V14.01,2013-04-25 19:55:00,
2013-04-25 13:00:00,64.0,37.9,29.87,SSW,205,9.0,9.0,38,0.00,,---,0.00,VWS V14.01,2013-04-25 20:00:00,
2013-04-25 13:05:00,64.9,38.0,29.87,West,261,0.0,5.0,37,0.00,,---,0.00,VWS V14.01,2013-04-25 20:05:00,
2013-04-25 13:10:00,64.6,34.1,29.86,NE,34,2.0,5.0,32,0.00,,---,0.00,VWS V14.01,2013-04-25 20:10:00,
2013-04-25 13:15:00,64.4,36.2,29.87,NNW,333,2.0,6.0,35,0.00,,---,0.00,VWS V14.01,2013-04-25 20:15:00,
2013-04-25 13:20:00,65.9,36.8,29.87,WSW,239,2.0,6.0,34,0.00,,---,0.00,VWS V14.01,2013-04-25 20:20:00,
2013-04-25 13:25:00,64.9,34.4,29.86,SE,137,2.0,6.0,32,0.00,,---,0.00,VWS V14.01,2013-04-25 20:25:00,
2013-04-25 13:30:00,64.9,37.3,29.86,WSW,253,2.0,6.0,36,0.00,,---,0.00,VWS V14.01,2013-04-25 20:30:00,
2013-04-25 13:35:00,64.4,34.7,29.86,SSW,196,3.0,6.0,33,0.00,,---,0.00,VWS V14.01,2013-04-25 20:35:00,
2013-04-25 13:40:00,65.6,37.2,29.86,SSW,205,3.0,6.0,35,0.00,,---,0.00,VWS V14.01,2013-04-25 20:40:00,
2013-04-25 13:45:00,65.3,37.7,29.86,South,189,2.0,8.0,36,0.00,,---,0.00,VWS V14.01,2013-04-25 20:45:00,
2013-04-25 13:50:00,66.6,39.5,29.86,SSW,192,6.0,8.0,37,0.00,,---,0.00,VWS V14.01,2013-04-25 20:50:00,
2013-04-25 13:55:00,65.6,35.8,29.86,SW,236,0.0,12.0,33,0.00,,---,0.00,VWS V14.01,2013-04-25 20:55:00,
2013-04-25 14:00:00,65.3,37.7,29.86,North,351,1.0,12.0,36,0.00,,---,0.00,VWS V14.01,2013-04-25 21:00:00,
2013-04-25 14:05:00,66.8,38.3,29.86,SSE,166,5.0,8.0,35,0.00,,---,0.00,VWS V14.01,2013-04-25 21:05:00,
2013-04-25 14:10:00,66.1,36.2,29.86,SE,135,6.0,9.0,33,0.00,,---,0.00,VWS V14.01,2013-04-25 21:10:00,
2013-04-25 14:15:00,66.0,36.8,29.86,WSW,244,2.0,9.0,34,0.00,,---,0.00,VWS V14.01,2013-04-25 21:15:00,
2013-04-25 14:20:00,66.8,38.3,29.86,NW,305,5.0,9.0,35,0.00,,---,0.00,VWS V14.01,2013-04-25 21:20:00,
2013-04-25 14:25:00,66.4,35.7,29.86,NE,35,0.0,9.0,32,0.00,,---,0.00,VWS V14.01,2013-04-25 21:25:00,
2013-04-25 14:30:00,67.2,39.4,29.86,SW,236,3.0,12.0,36,0.00,,---,0.00,VWS V14.01,2013-04-25 21:30:00,
2013-04-25 14:35:00,67.5,36.6,29.86,SW,233,1.0,12.0,32,0.00,,---,0.00,VWS V14.01,2013-04-25 21:35:00,
2013-04-25 14:40:00,66.5,36.5,29.86,WSW,246,2.0,12.0,33,0.00,,---,0.00,VWS V14.01,2013-04-25 21:40:00,
2013-04-25 14:45:00,67.0,36.2,29.86,NW,308,2.0,12.0,32,0.00,,---,0.00,VWS V14.01,2013-04-25 21:45:00,
2013-04-25 14:50:00,67.5,38.9,29.86,SW,231,5.0,12.0,35,0.00,,---,0.00,VWS V14.01,2013-04-25 21:50:00,
2013-04-25 14:55:00,67.7,37.6,29.86,SW,229,3.0,12.0,33,0.00,,---,0.00,VWS V14.01,2013-04-25 21:55:00,
2013-04-25 15:00:00,67.3,36.5,29.86,NNE,30,2.0,12.0,32,0.00,,---,0.00,VWS V14.01,2013-04-25 22:00:00,
2013-04-25 15:05:00,66.3,37.8,29.86,North,355,3.0,6.0,35,0.00,,---,0.00,VWS V14.01,2013-04-25 22:05:00,
2013-04-25 15:10:00,67.2,37.9,29.86,WNW,284,0.0,11.0,34,0.00,,---,0.00,VWS V14.01,2013-04-25 22:10:00,
2013-04-25 15:15:00,68.2,38.0,29.86,SW,223,1.0,11.0,33,0.00,,---,0.00,VWS V14.01,2013-04-25 22:15:00,
2013-04-25 15:20:00,67.8,34.4,29.86,NE,42,1.0,11.0,29,0.00,,---,0.00,VWS V14.01,2013-04-25 22:20:00,
2013-04-25 15:25:00,67.6,35.9,29.86,West,270,2.0,11.0,31,0.00,,---,0.00,VWS V14.01,2013-04-25 22:25:00,
2013-04-25 15:30:00,67.5,38.2,29.86,SW,217,3.0,11.0,34,0.00,,---,0.00,VWS V14.01,2013-04-25 22:30:00,
2013-04-25 15:35:00,67.4,37.3,29.86,SW,226,4.0,11.0,33,0.00,,---,0.00,VWS V14.01,2013-04-25 22:35:00,
2013-04-25 15:40:00,67.1,37.1,29.86,SW,229,6.0,11.0,33,0.00,,---,0.00,VWS V14.01,2013-04-25 22:40:00,
2013-04-25 15:45:00,67.0,37.0,29.86,SW,234,0.0,11.0,33,0.00,,---,0.00,VWS V14.01,2013-04-25 22:45:00,
2013-04-25 15:50:00,67.2,37.2,29.85,South,178,1.0,11.0,33,0.00,,---,0.00,VWS V14.01,2013-04-25 22:50:00,
2013-04-25 15:55:00,67.3,35.7,29.86,WNW,301,0.0,11.0,31,0.00,,---,0.00,VWS V14.01,2013-04-25 22:55:00,
2013-04-25 16:00:00,67.4,34.1,29.86,West,273,7.0,11.0,29,0.00,,---,0.00,VWS V14.01,2013-04-25 23:00:00,
2013-04-25 16:05:00,68.6,37.6,29.85,WNW,286,4.0,6.0,32,0.00,,---,0.00,VWS V14.01,2013-04-25 23:05:00,
2013-04-25 16:10:00,68.1,34.7,29.85,West,259,2.0,9.0,29,0.00,,---,0.00,VWS V14.01,2013-04-25 23:10:00,
2013-04-25 16:15:00,67.8,36.9,29.85,WSW,238,4.0,9.0,32,0.00,,---,0.00,VWS V14.01,2013-04-25 23:15:00,
2013-04-25 16:20:00,67.0,36.2,29.85,West,262,3.0,9.0,32,0.00,,---,0.00,VWS V14.01,2013-04-25 23:20:00,
2013-04-25 16:25:00,67.1,38.6,29.85,WSW,248,1.0,9.0,35,0.00,,---,0.00,VWS V14.01,2013-04-25 23:25:00,
2013-04-25 16:30:00,66.5,35.0,29.85,SW,215,2.0,9.0,31,0.00,,---,0.00,VWS V14.01,2013-04-25 23:30:00,
2013-04-25 16:35:00,67.9,35.3,29.85,SSE,158,5.0,9.0,30,0.00,,---,0.00,VWS V14.01,2013-04-25 23:35:00,
2013-04-25 16:40:00,68.1,32.9,29.85,North,5,5.0,9.0,27,0.00,,---,0.00,VWS V14.01,2013-04-25 23:40:00,
2013-04-25 16:45:00,68.4,34.9,29.85,NW,319,4.0,9.0,29,0.00,,---,0.00,VWS V14.01,2013-04-25 23:45:00,
2013-04-25 16:50:00,68.1,33.8,29.85,NE,45,0.0,9.0,28,0.00,,---,0.00,VWS V14.01,2013-04-25 23:50:00,
2013-04-25 16:55:00,68.2,36.4,29.85,SSW,203,1.0,9.0,31,0.00,,---,0.00,VWS V14.01,2013-04-25 23:55:00,
2013-04-25 17:00:00,67.7,34.3,29.85,NNW,342,0.0,9.0,29,0.00,,---,0.00,VWS V14.01,2013-04-26 00:00:00,
2013-04-25 17:05:00,68.0,32.8,29.85,SW,215,3.0,6.0,27,0.00,,---,0.00,VWS V14.01,2013-04-26 00:05:00,
2013-04-25 17:10:00,67.8,33.5,29.85,North,355,4.0,6.0,28,0.00,,---,0.00,VWS V14.01,2013-04-26 00:10:00,
2013-04-25 17:15:00,67.6,33.4,29.85,WSW,244,3.0,7.0,28,0.00,,---,0.00,VWS V14.01,2013-04-26 00:15:00,
2013-04-25 17:20:00,67.7,33.5,29.85,SSW,209,2.0,7.0,28,0.00,,---,0.00,VWS V14.01,2013-04-26 00:20:00,
2013-04-25 17:25:00,67.4,35.7,29.86,SSE,164,0.0,7.0,31,0.00,,---,0.00,VWS V14.01,2013-04-26 00:25:00,
2013-04-25 17:30:00,67.6,32.5,29.86,SW,232,3.0,7.0,27,0.00,,---,0.00,VWS V14.01,2013-04-26 00:30:00,
2013-04-25 17:35:00,67.3,33.1,29.86,SSW,209,1.0,7.0,28,0.00,,---,0.00,VWS V14.01,2013-04-26 00:35:00,
2013-04-25 17:40:00,67.4,35.7,29.86,West,269,3.0,7.0,31,0.00,,---,0.00,VWS V14.01,2013-04-26 00:40:00,
2013-04-25 17:45:00,67.2,33.0,29.86,WNW,286,3.0,7.0,28,0.00,,---,0.00,VWS V14.01,2013-04-26 00:45:00,
2013-04-25 17:50:00,66.9,34.5,29.86,WSW,243,0.0,9.0,30,0.00,,---,0.00,VWS V14.01,2013-04-26 00:50:00,
2013-04-25 17:55:00,67.3,34.0,29.86,NNW,345,1.0,9.0,29,0.00,,---,0.00,VWS V14.01,2013-04-26 00:55:00,
2013-04-25 18:00:00,67.6,33.4,29.86,WSW,241,1.0,9.0,28,0.00,,---,0.00,VWS V14.01,2013-04-26 01:00:00,
2013-04-25 18:05:00,67.8,35.3,29.86,SSW,194,0.0,3.0,30,0.00,,---,0.00,VWS V14.01,2013-04-26 01:05:00,
2013-04-25 18:10:00,67.9,33.6,29.86,SSW,193,0.0,5.0,28,0.00,,---,0.00,VWS V14.01,2013-04-26 01:10:00,
2013-04-25 18:15:00,67.7,34.3,29.86,SW,224,1.0,5.0,29,0.00,,---,0.00,VWS V14.01,2013-04-26 01:15:00,
2013-04-25 18:20:00,67.2,34.8,29.86,WSW,248,5.0,7.0,30,0.00,,---,0.00,VWS V14.01,2013-04-26 01:20:00,
2013-04-25 18:25:00,66.7,35.9,29.86,SW,225,2.0,7.0,32,0.00,,---,0.00,VWS V14.01,2013-04-26 01:25:00,
2013-04-25 18:30:00,66.2,35.5,29.86,South,188,2.0,7.0,32,0.00,,---,0.00,VWS V14.01,2013-04-26 01:30:00,
2013-04-25 18:35:00,65.8,34.3,29.86,SW,225,0.0,7.0,31,0.00,,---,0.00,VWS V14.01,2013-04-26 01:35:00,
2013-04-25 18:40:00,65.6,35.0,29.86,SSW,207,0.0,7.0,32,0.00,,---,0.00,VWS V14.01,2013-04-26 01:40:00,
2013-04-25 18:45:00,65.4,34.0,29.86,SSW,204,0.0,7.0,31,0.00,,---,0.00,VWS V14.01,2013-04-26 01:45:00,
2013-04-25 18:50:00,65.2,33.8,29.86,SSW,211,0.0,7.0,31,0.00,,---,0.00,VWS V14.01,2013-04-26 01:50:00,
2013-04-25 18:55:00,64.9,34.4,29.87,SW,221,0.0,7.0,32,0.00,,---,0.00,VWS V14.01,2013-04-26 01:55:00,
2013-04-25 19:00:00,64.7,36.4,29.87,SW,221,0.0,7.0,35,0.00,,---,0.00,VWS V14.01,2013-04-26 02:00:00,
2013-04-25 19:05:00,64.5,36.3,29.87,SW,221,0.0,2.0,35,0.00,,---,0.00,VWS V14.01,2013-04-26 02:05:00,
2013-04-25 19:10:00,64.3,36.8,29.86,SW,223,0.0,2.0,36,0.00,,---,0.00,VWS V14.01,2013-04-26 02:10:00,
2013-04-25 19:15:00,64.0,37.2,29.87,SW,223,0.0,3.0,37,0.00,,---,0.00,VWS V14.01,2013-04-26 02:15:00,
2013-04-25 19:20:00,63.8,37.0,29.87,SW,223,0.0,3.0,37,0.00,,---,0.00,VWS V14.01,2013-04-26 02:20:00,
2013-04-25 19:25:00,62.4,39.0,29.87,SW,223,0.0,3.0,42,0.00,,---,0.00,VWS V14.01,2013-04-26 02:25:00,
2013-04-25 19:30:00,60.6,38.6,29.87,SW,222,0.0,3.0,44,0.00,,---,0.00,VWS V14.01,2013-04-26 02:30:00,
2013-04-25 19:35:00,59.3,39.6,29.87,SW,223,0.0,3.0,48,0.00,,---,0.00,VWS V14.01,2013-04-26 02:35:00,
2013-04-25 19:40:00,57.7,37.6,29.87,SW,223,0.0,3.0,47,0.00,,---,0.00,VWS V14.01,2013-04-26 02:40:00,
2013-04-25 19:45:00,56.5,37.1,29.87,SW,222,0.0,3.0,48,0.00,,---,0.00,VWS V14.01,2013-04-26 02:45:00,
2013-04-25 19:50:00,55.5,40.5,29.87,SW,222,0.0,3.0,57,0.00,,---,0.00,VWS V14.01,2013-04-26 02:50:00,
2013-04-25 19:55:00,54.6,37.3,29.87,SW,223,0.0,3.0,52,0.00,,---,0.00,VWS V14.01,2013-04-26 02:55:00,
2013-04-25 20:00:00,53.8,39.4,29.87,SW,222,0.0,3.0,58,0.00,,---,0.00,VWS V14.01,2013-04-26 03:00:00,
2013-04-25 20:05:00,53.0,38.2,29.87,SW,223,0.0,0.0,57,0.00,,---,0.00,VWS V14.01,2013-04-26 03:05:00,
2013-04-25 20:10:00,52.4,38.5,29.87,SW,222,0.0,0.0,59,0.00,,---,0.00,VWS V14.01,2013-04-26 03:10:00,
2013-04-25 20:15:00,51.7,36.5,29.87,SW,222,0.0,0.0,56,0.00,,---,0.00,VWS V14.01,2013-04-26 03:15:00,
2013-04-25 20:20:00,51.0,36.8,29.88,SW,223,0.0,0.0,58,0.00,,---,0.00,VWS V14.01,2013-04-26 03:20:00,
2013-04-25 20:25:00,50.7,41.7,29.88,SW,223,0.0,0.0,71,0.00,,---,0.00,VWS V14.01,2013-04-26 03:25:00,
2013-04-25 20:30:00,50.2,41.5,29.88,SW,223,0.0,0.0,72,0.00,,---,0.00,VWS V14.01,2013-04-26 03:30:00,
2013-04-25 20:35:00,49.7,40.0,29.88,SW,223,0.0,0.0,69,0.00,,---,0.00,VWS V14.01,2013-04-26 03:35:00,
2013-04-25 20:40:00,49.1,37.5,29.89,SW,222,0.0,0.0,64,0.00,,---,0.00,VWS V14.01,2013-04-26 03:40:00,
2013-04-25 20:45:00,48.7,36.7,29.89,SW,222,0.0,0.0,63,0.00,,---,0.00,VWS V14.01,2013-04-26 03:45:00,
2013-04-25 20:50:00,48.3,36.3,29.89,SW,222,0.0,0.0,63,0.00,,---,0.00,VWS V14.01,2013-04-26 03:50:00,
2013-04-25 20:55:00,47.9,35.9,29.90,SW,222,0.0,0.0,63,0.00,,---,0.00,VWS V14.01,2013-04-26 03:55:00,
2013-04-25 21:00:00,48.0,36.0,29.90,SW,222,0.0,0.0,63,0.00,,---,0.00,VWS V14.01,2013-04-26 04:00:00,
2013-04-25 21:01:00,48.0,36.0,29.90,SW,223,0.0,0.0,63,0.00,,---,0.00,VWS V14.01,2013-04-26 04:01:00,
2013-04-25 21:06:00,47.7,38.0,29.90,SW,222,0.0,0.0,69,0.00,,---,0.00,VWS V14.01,2013-04-26 04:06:00,
2013-04-25 21:11:00,47.6,37.2,29.91,SW,222,0.0,0.0,67,0.00,,---,0.00,VWS V14.01,2013-04-26 04:11:00,
2013-04-25 21:16:00,47.1,36.3,29.91,SW,222,0.0,0.0,66,0.00,,---,0.00,VWS V14.01,2013-04-26 04:16:00,
2013-04-25 21:21:00,46.8,36.8,29.90,SW,222,0.0,0.0,68,0.00,,---,0.00,VWS V14.01,2013-04-26 04:21:00,
2013-04-25 21:26:00,47.0,38.1,29.90,SW,223,0.0,0.0,71,0.00,,---,0.00,VWS V14.01,2013-04-26 04:26:00,
2013-04-25 21:31:00,46.9,38.4,29.91,SW,223,0.0,0.0,72,0.00,,---,0.00,VWS V14.01,2013-04-26 04:31:00,
2013-04-25 21:36:00,46.9,40.4,29.91,SW,223,0.0,0.0,78,0.00,,---,0.00,VWS V14.01,2013-04-26 04:36:00,
2013-04-25 21:41:00,46.7,40.5,29.91,SW,222,0.0,0.0,79,0.00,,---,0.00,VWS V14.01,2013-04-26 04:41:00,
2013-04-25 21:46:00,46.8,40.0,29.91,SW,222,0.0,0.0,77,0.00,,---,0.00,VWS V14.01,2013-04-26 04:46:00,
2013-04-25 21:51:00,46.9,38.4,29.91,SW,222,0.0,0.0,72,0.00,,---,0.00,VWS V14.01,2013-04-26 04:51:00,
2013-04-25 21:56:00,46.5,38.3,29.91,SW,222,0.0,0.0,73,0.00,,---,0.00,VWS V14.01,2013-04-26 04:56:00,
2013-04-25 22:01:00,46.2,38.7,29.92,SW,223,0.0,0.0,75,0.00,,---,0.00,VWS V14.01,2013-04-26 05:01:00,
2013-04-25 22:06:00,46.2,40.1,29.92,SW,223,0.0,0.0,79,0.00,,---,0.00,VWS V14.01,2013-04-26 05:06:00,
2013-04-25 22:11:00,46.1,38.6,29.92,SW,222,0.0,0.0,75,0.00,,---,0.00,VWS V14.01,2013-04-26 05:11:00,
2013-04-25 22:16:00,45.5,38.7,29.92,SW,222,0.0,0.0,77,0.00,,---,0.00,VWS V14.01,2013-04-26 05:16:00,
2013-04-25 22:21:00,45.4,39.3,29.92,SW,223,0.0,1.0,79,0.00,,---,0.00,VWS V14.01,2013-04-26 05:21:00,
2013-04-25 22:26:00,45.6,40.1,29.92,SW,222,0.0,1.0,81,0.00,,---,0.00,VWS V14.01,2013-04-26 05:26:00,
2013-04-25 22:31:00,45.8,40.0,29.92,SW,222,0.0,1.0,80,0.00,,---,0.00,VWS V14.01,2013-04-26 05:31:00,
2013-04-25 22:36:00,45.8,39.3,29.92,SW,222,0.0,1.0,78,0.00,,---,0.00,VWS V14.01,2013-04-26 05:36:00,
2013-04-25 22:41:00,45.2,37.8,29.92,SW,222,0.0,1.0,75,0.00,,---,0.00,VWS V14.01,2013-04-26 05:41:00,
2013-04-25 22:46:00,44.8,37.7,29.92,SW,223,0.0,1.0,76,0.00,,---,0.00,VWS V14.01,2013-04-26 05:46:00,
2013-04-25 22:51:00,44.5,37.4,29.92,SW,222,0.0,1.0,76,0.00,,---,0.00,VWS V14.01,2013-04-26 05:51:00,
2013-04-25 22:56:00,44.4,38.3,29.92,SW,222,0.0,1.0,79,0.00,,---,0.00,VWS V14.01,2013-04-26 05:56:00,
2013-04-25 23:01:00,44.5,39.7,29.92,SW,223,0.0,0.0,83,0.00,,---,0.00,VWS V14.01,2013-04-26 06:01:00,
2013-04-25 23:06:00,44.5,38.4,29.92,SW,223,0.0,0.0,79,0.00,,---,0.00,VWS V14.01,2013-04-26 06:06:00,
2013-04-25 23:11:00,44.5,40.3,29.92,SW,222,0.0,0.0,85,0.00,,---,0.00,VWS V14.01,2013-04-26 06:11:00,
2013-04-25 23:16:00,44.4,39.6,29.92,SW,222,0.0,0.0,83,0.00,,---,0.00,VWS V14.01,2013-04-26 06:16:00,
2013-04-25 23:21:00,44.2,39.7,29.92,SW,222,0.0,0.0,84,0.00,,---,0.00,VWS V14.01,2013-04-26 06:21:00,
2013-04-25 23:26:00,43.8,38.7,29.92,SW,223,0.0,0.0,82,0.00,,---,0.00,VWS V14.01,2013-04-26 06:26:00,
2013-04-25 23:31:00,43.5,38.4,29.92,SW,223,0.0,0.0,82,0.00,,---,0.00,VWS V14.01,2013-04-26 06:31:00,
2013-04-25 23:36:00,43.2,37.8,29.92,SW,222,0.0,0.0,81,0.00,,---,0.00,VWS V14.01,2013-04-26 06:36:00,
2013-04-25 23:41:00,43.1,37.7,29.92,SW,223,0.0,0.0,81,0.00,,---,0.00,VWS V14.01,2013-04-26 06:41:00,
2013-04-25 23:46:00,42.7,36.7,29.92,SW,223,0.0,0.0,79,0.00,,---,0.00,VWS V14.01,2013-04-26 06:46:00,
2013-04-25 23:51:00,42.6,37.2,29.93,SW,222,0.0,0.0,81,0.00,,---,0.00,VWS V14.01,2013-04-26 06:51:00,
2013-04-25 23:56:00,42.4,36.7,29.92,SW,222,0.0,0.0,80,0.00,,---,0.00,VWS V14.01,2013-04-26 06:56:00,